Location: *
(45.1333°S, 169.6333°W)
Time: 19:02:23
(UTC+00:00)

Cosmos 1862 - Pass Details

Date: 26 May 2022
Orbit: 532 x 554 km, 82.5° (Epoch: 06 July)

Event Time Altitude Azimuth Distance (km) Brightness Sun altitude
Rises 06:18:00 0° 342° (NNW) 2,681 7.1 -25.6°
Reaches altitude 10° 06:20:10 10° 337° (NNW) 1,801 6.2 -26.0°
Enters shadow 06:23:25 48° 295° (WNW) 720 4.2 -26.6°
